パンスターズ彗星

C/2024 R4 ( PanSTARRS )

English version
Home page
Updated on May 2, 2025

---------------------------------------------------------------------

・ プロフィール

発見日 2024年9月11日
発見光度 21.2等
発見者 Pan-STARRS 1 telescope (Haleakala)

・ 軌道要素

Epoch 2025 May 5.0 TT = JDT 2460800.5
T 2027 Oct. 26.63800 TT                                 Payne
q   4.4093256            (2000.0)            P               Q
z  -0.0005941      Peri.  108.98960     -0.33710525     -0.90983711
 +/-0.0000324      Node   345.93355     -0.38052639     +0.36677393
e   1.0026197      Incl.   95.35941     +0.86113862     -0.19409617
From 64 observations 2024 July 3-2025 Apr. 28, mean residual 0".2.

・ 星図

・ 光度変化

        m1 = 6.0 + 5 logΔ + 10.0 log r

---------------------------------------------------------------------

軌道要素はM.P.E.C. 2025-J08に掲載されたものです。
星図はステラナビゲータ Ver.11 (アストロアーツ) で作成したものです。
光度グラフはComet for Windowsで作成したものです。

---------------------------------------------------------------------

Copyright(C) Seiichi Yoshida (comet@aerith.net). All rights reserved.